www.pogodaiklimat.ru

Погода и климат >> Архив погоды >> Мексика >> Сомбререте


ПОГОДА в Сомбререте

  • Прогноз погоды в Сомбререте
  • Монитор погоды в Сомбререте

АРХИВ ПОГОДЫ в Сомбререте

Время (UTC), дата Ветер
(напр.,м/с)
 
Видим.   Явления Облачность Т
(С)
Тd
(С)
f
(%)
Тe
(С)
Тes
(С)
Комфортность P
(гПа)
Po
(гПа)
Тmin
(С)
Tmax
(С)
R
(мм)
R24
(мм)
S
(см)
12 14.01 штиль 0 16 км ясно +7.5 +5.9 90 +7 +7 1015.7 772.4 +5.5 +21.8
15 14.01 штиль 0 16 км 3/0
[Ci fib]
+9.0 +6.6 85 +8 +11 1018.7 773.2
18 14.01 Ю 2 16 км 3/1 1350 м
[Cu hum Ci fib]
+19.4 +9.3 52 +21 +30 комфорт 1017.8 773.1 +5.0 +19.4
21 14.01 З 1 16 км 8/8 1200 м
[Cu med, cong]
+22.5 +5.4 33 +23 +25 комфорт 1011.3 770.4
00 15.01 штиль 0 16 км 6/4 1000 м
[Cu med, cong Cs]
+17.8 +6.9 49 +18 +18 1008.8 770.2 +5.0 +23.7
03 15.01 штиль 0 16 км 6/4 1000 м
[Cu med, cong Cs]
+17.8 +6.9 49 +18 +18 1008.8 770.2 +5.0 +23.7
06 15.01 ЮВ 2 16 км 5/0
[Ac und]
+8.8 +7.8 93 +7 +7 1011.8 772.4 +23.7 0.1
09 15.01 ЮВ 2 16 км 5/0
[Ac und]
+8.8 +7.8 93 +7 +7 1011.8 772.4 +23.7 0.1
12 15.01 Ю 1 16 км слаб. морось 8/8 1000 м
[]
+9.9 +8.2 89 +9 +9 1016.6 771.8 0.0
15 15.01 штиль 0 15 км слаб. морось 10/10 1200 м
[Sc]
+10.2 +8.2 87 +9 +9 1018.9 772.8 0.0
18 15.01 Ю 2 16 км осадки на расстоянии {морось} 10/10 1500 м
[]
+13.2 +7.9 70 +13 +13 1019.1 773.3 0.1
21 15.01 З 3 16 км 9/5 1200 м
[Cu hum As op]
+15.7 +8.0 60 +15 +16 1014.3 771.0
00 16.01 З 3 16 км 9/5 1200 м
[Cu hum As op]
+15.7 +8.0 60 +15 +15 1014.3 771.0
12 16.01 штиль 0 16 км ясно +7.2 +5.8 91 +6 +6 1016.3 771.9 +6.2 +18.4
15 16.01 штиль 0 16 км 3/0
[Ci fib]
+7.8 +4.9 82 +7 +10 1019.0 772.9
18 16.01 Ю 1 16 км ясно +19.0 +5.5 41 +21 +33 комфорт 1018.1 773.4 +5.4 +19.0
21 16.01 ЮЗ 1 16 км 6/6 1350 м
[Cu hum]
+21.0 +6.3 38 +23 +27 комфорт 1012.1 770.9
00 17.01 С 1 16 км в посл. час морось 8/8 1000 м
[Sc diur, vesp]
+16.6 +8.1 57 +18 +18 1009.7 770.9 0.0
03 17.01 СЗ 3 16 км слаб. морось 9/9 1110 м
[Frnb]
+13.4 +9.9 79 +12 +12 1009.7 772.2 0.2
06 17.01 штиль 0 50 км в посл. час морось ?/? +10.4 +7.0 79 +10 +10 1011.9 772.9 +24.2 0.7
12 17.01 штиль 0 15 км 8/0 1500 м
[As trans]
+8.5 +6.2 85 +8 +8 1016.0 772.2 +7.0 +24.2
15 17.01 штиль 0 16 км 9/0 1500 м
[As trans]
+10.5 +8.0 84 +10 +11 1018.4 772.9
18 17.01 ЮЗ 2 16 км 9/0 1500 м
[As trans]
+19.0 +8.0 49 +20 +25 1017.3 773.0 +6.8 +19.0
21 17.01 З 2 16 км слаб. морось 9/9 1350 м
[Sc diur, vesp]
+19.0 +9.5 54 +20 +21 1012.3 770.7 0.0
00 18.01 Ю 3 16 км в посл. час морось 9/9 1000 м
[]
+13.4 +8.1 70 +12 +12 1011.2 770.9 0.3
03 18.01 штиль 0 16 км 10/0 1000 м
[As trans]
+11.6 +8.3 80 +11 +11 1012.1 772.1
06 18.01 штиль 0 16 км в посл. час морось 10/0
[As op]
+10.4 +9.1 92 +10 +10 1014.0 772.6 0.0
15 18.01 штиль 0 16 км 8/0 1500 м
[Ac und]
+10.0 +8.5 90 +9 +11 1016.8 771.9
18 18.01 штиль 0 16 км 3/0 1500 м
[As trans]
+18.9 +6.5 44 +19 +31 опасность
простуды
1015.2 771.7 +7.2 +18.9
21 18.01 СЗ 2 16 км 8/8 1350 м
[Sc diur, vesp]
+18.9 +8.9 52 +20 +22 1009.9 769.3
00 19.01 ЮЗ 1 16 км 8/5 1000 м
[Cu hum Ac trans]
+18.2 +6.6 47 +19 +19 1006.3 768.2 +7.2 +23.2
03 19.01 ЮЗ 2 16 км 9/0
[Cs]
+13.1 +6.3 63 +13 +13 1006.4 769.2
06 19.01 штиль 0 16 км 5/0
[Cs]
+10.8 +6.3 74 +10 +10 1009.1 770.5 +23.2

 

Местоположение метеостанции Сомбререте (Мексика): широта 23.63 долгота -103.60 высота над уровнем моря 2351 м.

В архиве по умолчанию представлена погода в Сомбререте за последнюю неделю. Архивные данные за месяц целиком и за предыдущие месяцы, начиная с января 2011 года, Вы можете получить, выбрав интересующий диапазон дат из раскрывающегося списка и нажав кнопку "Ввод!".


*Определитесь, кто Вы:
робот инопланетянин человек

Внимание! Время в таблицах - всемирное. Для получения местного времени необходимо прибавить поправку, которая равна -6 ч.

Смотрите также архив погоды в соседних городах и на ближайших метеорологических станциях:

Погода в Дуранго (Мексика) (112 км)
Погода в Уэхукаре (Мексика) (141 км)
Погода в Сакатекасе (Мексика) (147 км)
Погода в Колотлане (Мексика) (174 км)
Погода в Торреоне (Мексика) (212 км)
Погода в Агуаскальентесе (Мексика) (237 км)
Погода в Тепике (Мексика) (265 км)
Погода в Тепеуанесе (Мексика) (287 км)
Погода в Мазатлане (Мексика) (290 км)
Погода в Лагос де Морено (Мексика) (307 км)

Пояснения к столбцам:

Ветер - указаны скорость ветра в м/с - средняя за 10 мин, порывы в срок и между сроками (в фигурных скобках) и направление, откуда дует ветер: С - северный, СВ - северо-восточный, В - восточный, ЮВ - юго-восточный, Ю - южный, ЮЗ - юго-западный, З - западный, СЗ - северо-западный.
Видимость - горизонтальная дальность видимости в метрах или километрах. При видимости от 1 до 10 км при отсутствии осадков обычно наблюдается дымка, при ухудшении видимости до 1 км и менее - туман. В сухую погоду видимость может ухудшаться дымом, пылью или мглою.
Явления - указаны атмосферные явления, наблюдавшиеся в срок или в последний час перед сроком; фигурными скобками обозначены явления, наблюдавшиеся между сроками (за 1-3 часа до срока); квадратными скобками обозначены град или гололедные отложения с указанием их диаметра в мм.
Облачность - указаны через наклонную черту общая и нижняя облачность в баллах и высота нижней границы облаков в метрах; квадратными скобками обозначены формы облаков: Ci - перистые, Cs - перисто-слоистые, Cc - перисто-кучевые, Ac - высококучевые, As - высокослоистые, Sc - слоисто-кучевые, Ns - слоисто-дождевые, Cu - кучевые, Cb - кучево-дождевые. Подробнее классификацию облаков см. в Атласе облаков (PDF).
T - Температура воздуха - температура, измеренная на высоте 2 м над землей.
Td - Температура точки росы - температура, при понижении до которой содержащийся в воздухе водяной пар достигнет насыщения.
f - Относительная влажность воздуха - влажноcть воздуха, измеренная на высоте 2 м над землей.
Te - Эффективная температура - температура, которую ощущает одетый по сезону человек в тени. Характеристика душности погоды. При расчете учитывается влияние влажности воздуха и скорости ветра на теплоощущения человека.
Tes - Эффективная температура на солнце - температура, которую ощущает человек, с поправкой на солнечный нагрев. Характеристика знойности погоды. Зависит от высоты солнца над горизонтом, облачности и скорости ветра. Ночью, в пасмурную погоду, а также при ветре 12 м/с и более поправка равна нулю.
P - Атмосферное давление - приведенное к уровню моря атмосферное давление.
Po - Атмосферное давление - измеренное на уровне метеостанции атмосферное давление.
Tmin - Минимальная температура - минимум температуры воздуха на высоте 2 м над землей.
Tmax - Максимальная температура - максимум температуры воздуха на высоте 2 м над землей.
R - Количество осадков - Количество выпавших осадков за период времени, мм. При наведении курсора мыши на число - период времени, за который выпало указанное количество осадков.
R24 - Количество осадков - Количество выпавших осадков за 24 часа, мм.
S - Снежный покров - Высота снежного покрова, см. При наведении курсора мыши на число - состояние снежного покрова и степень покрытия местности в баллах.